COSMOS 249 DEB, 3584

Orbit data source: Space-Track

COSMOS 249 DEB, 3584 is space debris in LEO originally from a launch on Sun, 20 Oct 1968 UTC launched from the Tyuratam Missile And Space Complex (TTMTR). Debris objects in space refer to the collection of defunct objects orbiting the Earth. Examples of debris include non-operational satellites, rocket bodies, and fragments generated from explosions, collisions, or faulty payload assembly.

Loading next visibility...
Identifier
3584, 1968-091S
Orbit
LEO
Country
Flag of CISCIS
Related business
Manufacturer
Unknown
Mission
Spacecraft
Bus & Motor
Unknown
Mass
Unknown
Launch date (UTC)
1968-10-20 (58 years ago)
Launch vehicle
Unknown
Launch site
Tyuratam Missile And Space Complex (TTMTR)
Object type
Payload
Rocket body
Debris
Shape & HBR
Unknown shape, 0.1 m
Radar Cross Section
Medium (>0.1 m² and <1 m²)

Expand to show TLE details & history
Last TLE update: 1 day ago

TLE from 1 day ago
0 COSMOS 249 DEB
1 03584U 68091S   26263.67756648  .00005977  00000-0  70173-3 0  9991
2 03584  62.2954  22.4590 0251943 247.1124 110.3178 14.65770123876892
Epoch: 2026-09-20T16:15Z
TLE epoch observation values (Epoch: 2026-09-20T16:15:41.743Z)
Latitude
-0.00005°
Longitude
138.96673°
Altitude
741.96 km
Speed
7.45 km/s
True Right ascension
01h 29m 50s
True Declination
0° 00' 00"
Sunlit
Object was in full shadow at epoch
Visualization orbit readout
Latitude
Unknown
Longitude
Unknown
Altitude
Unknown
Speed
Unknown
Apparent Right ascension
Unknown
Apparent Declination
Unknown
Sunlit
N/A
Visualization observer readout
Local Sidereal Time
12:20:40
Azimuth
Unknown
Elevation
Unknown
Doppler factor
Unknown
Orbital elements
Apogee altitude
851.171 km
Perigee altitude
495.848 km
Semi-major axis
7,051.647 km
Eccentricity
0.02519
Inclination
62.2954°
RAAN
22.459°
Arg. of periapsis
247.1124°
True anomaly
112.99495°
Mean anomaly
110.3178°
Eccentric anomaly
111.65941°
Mean motion
3.66528 °/min
Orbital period
98.22 mins
BSTAR
0.00070173
Loading maneuver chart data...
Computing Atmospheric mass density...

Documentation

Showing up to 5 results
|